Weather History for KHZY - April, 2013

Change the Weather History Date:

Monday, April 8, 2013

  Actual Average (KYNG) Record (KYNG)
Temperature  
Mean Temperature 45 °F 46 °F  
Max Temperature 64 °F 56 °F 81 °F (2001)
Min Temperature 28 °F 36 °F 14 °F (1982)
Degree Days  
Heating Degree Days 20 19  
Month to date heating degree days 166  
Since 1 July heating degree days 5690  
Cooling Degree Days 0 0  
Month to date cooling degree days 0  
Year to date cooling degree days 1  
Moisture  
Dew Point 31 °F    
Average Humidity 79    
Maximum Humidity 93    
Minimum Humidity 45    
Precipitation  
Precipitation 0.00 in 0.11 in - ()
Month to date precipitation 0.92  
Year to date precipitation 8.56  
Snow  
Snow 0.00 in 0.20 in - ()
Month to date snowfall 1.5  
Since 1 July snowfall 61.2  
Snow Depth -    
Sea Level Pressure  
Sea Level Pressure 30.04 in    
Wind  
Wind Speed 2 mph (SE)    
Max Wind Speed 13 mph    
Max Gust Speed -    
Visibility 5 miles    
Events      
T = Trace of Precipitation, MM = Missing Value Source: NWS Daily Summary

Daily Weather History Graph

Daily Weather History Graph

Search for Another Location

Airport or City:

Trip Planner

Search our weather history database for the weather conditions in past years. The results will help you decide how hot, cold, wet, or windy it might be!

Date:

Astronomy

Apr. 08, 2013 Rise Set
Actual Time 6:53 AM EDT 7:56 PM EDT
Civil Twilight 6:25 AM EDT 8:24 PM EDT
Nautical Twilight 5:51 AM EDT 8:58 PM EDT
Astronomical Twilight 5:15 AM EDT 9:34 PM EDT
Moon 5:44 AM EDT (4/8) 6:28 PM EDT (4/8)
Length of Visible Light 13h 59m
Length of Day
13h 02m
Waning Crescent, 3% of the Moon is Illuminated
Apr 8
Waning Crescent
Apr 10
New
Apr 18
First Quarter
Apr 25
Full
May 2
Last Quarter

Hourly Weather History & Observations

Time (EDT) Temp. Windchill Dew Point Humidity Pressure Visibility Wind Dir Wind Speed Gust Speed Precip Events Conditions
12:53 AM 36.0 °F - 30.0 °F 79% 30.06 in 7.0 mi Calm Calm - N/A   Clear
1:53 AM 35.1 °F - 30.0 °F 82% 30.08 in 6.0 mi Calm Calm - N/A   Haze
2:53 AM 33.1 °F - 28.9 °F 85% 30.07 in 3.0 mi Calm Calm - N/A   Clear
3:13 AM 33.8 °F - 28.4 °F 81% 30.06 in 2.5 mi Calm Calm - N/A   Clear
3:22 AM 33.8 °F - 30.2 °F 87% 30.06 in 3.0 mi Calm Calm - N/A   Clear
3:34 AM 32.0 °F - 28.4 °F 87% 30.05 in 2.0 mi Calm Calm - N/A   Clear
3:51 AM 32.0 °F - 28.4 °F 87% 30.05 in 4.0 mi Calm Calm - N/A   Clear
3:53 AM 32.0 °F - 28.0 °F 85% 30.06 in 3.0 mi Calm Calm - N/A   Clear
4:11 AM 30.2 °F - 28.4 °F 93% 30.06 in 2.5 mi Calm Calm - N/A   Clear
4:49 AM 30.2 °F - 26.6 °F 86% 30.05 in 4.0 mi Calm Calm - N/A   Clear
4:53 AM 30.9 °F - 27.0 °F 85% 30.06 in 4.0 mi Calm Calm - N/A   Clear
5:38 AM 28.4 °F - 26.6 °F 93% 30.04 in 2.0 mi Calm Calm - N/A   Clear
5:53 AM 30.0 °F - 27.0 °F 88% 30.05 in 2.5 mi Calm Calm - N/A   Clear
6:05 AM 30.2 °F 26.7 °F 26.6 °F 86% 30.03 in 4.0 mi East 3.5 mph - N/A   Clear
6:26 AM 30.2 °F 26.7 °F 26.6 °F 86% 30.03 in 2.5 mi East 3.5 mph - N/A   Clear
6:41 AM 30.2 °F 26.7 °F 26.6 °F 86% 30.04 in 4.0 mi East 3.5 mph - N/A   Clear
6:53 AM 28.9 °F - 26.1 °F 89% 30.06 in 3.0 mi Calm Calm - N/A   Clear
7:53 AM 37.9 °F 32.7 °F 33.1 °F 83% 30.06 in 6.0 mi SE 6.9 mph - N/A   Haze
8:53 AM 44.1 °F 40.8 °F 36.0 °F 73% 30.07 in 8.0 mi SE 5.8 mph - N/A   Clear
9:53 AM 51.1 °F - 37.0 °F 59% 30.04 in 10.0 mi SE 8.1 mph - N/A   Clear
10:53 AM 57.9 °F - 39.0 °F 49% 30.00 in 10.0 mi SE 9.2 mph - N/A   Mostly Cloudy
11:53 AM 62.1 °F - 41.0 °F 46% 29.99 in 10.0 mi South 12.7 mph - N/A   Overcast
12:53 PM 64.0 °F - 42.1 °F 45% 29.95 in 10.0 mi South 11.5 mph - N/A   Overcast